Retour au catalogue

STARLINK-11129

ActifCommunicationsVLEO
NORAD 60038·PAYLOAD·🇺🇸 United States

Lancé Jun 8, 2024 depuis Vandenberg Space Force Base

Loading…

Prochains Passages (prochaines 24 heures)

TLE

FraisSource: CelesTrak SupGP

Époque: Sep 15, 2026, 02:57 UTC

1 60038C 24112A   26258.12340278 -.00068364  00000+0 -56286-3 0  2583
2 60038  53.1576  52.7585 0001090  92.3466 110.3099 15.69755272    11

Suivez STARLINK-11129 en temps réel avec AllMySat

Download on the App Store